Date String (YYYY-MM-DD hh:mm:ss) UTC,Instrument flags,Ambient pressure (hPa),Sample flow (lpm),Bypass flow (lpm),Sample temperature (°C),Ambient temperature (°C),ASC tube jacket temperature (°C),LED temperature (°C),Box temperature (°C),Sample RH (%),Span deviation,Mass concentration (μg/m³),Mass concentration (μg/m³),Mass concentration (μg/m³)
DateTimeUTC,F1_M11,P_M11,Q1_M11,Q2_M11,T1_M11,T2_M11,T3_M11,T4_M11,T5_M11,U1_M11,ZSPAN_M11,X2_M11,X0_M11,X1_M11
2021-08-20 20:00:00,,0825.4,5.00,0.00,29.4,25.7,00.0,38.5,30.6,16.7,0002.9,0012.88,0017.00,0012.40
2021-08-20 20:01:00,,0825.4,5.01,0.00,29.3,26.0,00.0,38.5,30.7,17.5,0002.9,0012.91,0017.35,0012.39
2021-08-20 20:02:00,,0825.4,5.00,0.00,29.2,26.5,00.0,38.4,30.8,17.9,0002.9,0013.02,0018.24,0012.38
2021-08-20 20:03:00,,0825.3,5.00,0.00,29.2,26.9,00.0,38.4,30.9,16.5,0003.0,0013.01,0018.22,0012.36
2021-08-20 20:04:00,,0825.3,5.00,0.00,29.2,27.2,00.0,38.4,30.9,16.8,0002.9,0012.93,0018.06,0012.33
2021-08-20 20:05:00,,0825.4,4.99,0.00,29.3,27.5,00.0,38.4,31.0,16.9,0002.9,0012.85,0017.89,0012.24
2021-08-20 20:06:00,,0825.4,5.01,0.00,29.3,27.8,00.0,38.4,31.1,16.6,0002.9,0012.80,0017.82,0012.19
2021-08-20 20:07:00,,0825.3,5.00,0.00,29.3,28.0,00.0,38.4,31.1,15.9,0002.8,0012.76,0017.76,0012.18
2021-08-20 20:08:00,,0825.3,5.00,0.00,29.4,28.2,00.0,38.4,31.2,16.1,0002.9,0012.74,0017.72,0012.17
2021-08-20 20:09:00,,0825.3,4.99,0.00,29.4,28.3,00.0,38.4,31.3,16.6,0002.9,0012.78,0017.80,0012.17
2021-08-20 20:10:00,,0825.3,5.00,0.00,29.4,28.4,00.0,38.4,31.3,16.4,0002.7,0012.82,0017.90,0012.16
2021-08-20 20:11:00,,0825.3,5.01,0.00,29.5,28.5,00.0,38.5,31.4,16.1,0002.5,0012.76,0017.74,0012.14
2021-08-20 20:12:00,,0825.4,4.99,0.00,29.5,28.6,00.0,38.5,31.4,15.7,0002.3,0012.68,0017.17,0012.13
2021-08-20 20:13:00,,0825.4,5.01,0.00,29.6,28.7,00.0,38.5,31.5,15.6,0002.4,0012.59,0016.41,0012.13
2021-08-20 20:14:00,,0825.3,5.01,0.00,29.6,28.8,00.0,38.5,31.5,16.3,0002.2,0012.63,0016.58,0012.16
2021-08-20 20:15:00,,0825.3,4.99,0.00,29.6,28.9,00.0,38.6,31.5,15.8,0002.1,0012.64,0016.66,0012.17
2021-08-20 20:16:00,,0825.3,5.00,0.00,29.7,28.9,00.0,38.6,31.6,16.2,0002.1,0012.64,0016.62,0012.18
2021-08-20 20:17:00,,0825.4,5.01,0.00,29.7,28.7,00.0,38.6,31.5,16.3,0002.1,0012.69,0017.06,0012.21
2021-08-20 20:18:00,,0825.3,5.00,0.00,29.6,26.9,00.0,38.6,31.0,15.4,0002.1,0012.69,0017.36,0012.19
2021-08-20 20:19:00,,0825.3,5.00,0.00,29.4,25.7,00.0,38.6,30.6,16.0,0001.9,0012.68,0017.73,0012.19
2021-08-20 20:20:00,,0825.3,5.00,0.00,29.3,25.9,00.0,38.5,30.7,16.3,0001.9,0012.63,0017.70,0012.17
2021-08-20 20:21:00,,0825.3,4.99,0.00,29.3,26.4,00.0,38.5,30.8,16.2,0002.0,0012.56,0017.66,0012.16
2021-08-20 20:22:00,,0825.4,5.01,0.00,29.2,26.8,00.0,38.4,30.9,17.2,0002.4,0012.56,0017.92,0012.17
2021-08-20 20:23:00,,0825.3,4.99,0.00,29.3,27.2,00.0,38.4,31.0,16.5,0002.5,0012.59,0018.09,0012.18
2021-08-20 20:24:00,,0825.4,5.01,0.00,29.3,27.5,00.0,38.4,31.1,15.8,0002.4,0012.62,0018.15,0012.20
2021-08-20 20:25:00,,0825.4,5.00,0.00,29.3,27.8,00.0,38.4,31.1,16.0,0002.6,0012.58,0017.96,0012.17
2021-08-20 20:26:00,,0825.3,5.00,0.00,29.4,28.0,00.0,38.4,31.2,16.2,0002.7,0012.55,0017.85,0012.15
2021-08-20 20:27:00,,0825.4,4.99,0.00,29.4,28.2,00.0,38.4,31.2,15.8,0002.9,0012.51,0017.72,0012.12
2021-08-20 20:28:00,,0825.3,5.00,0.00,29.4,28.3,00.0,38.5,31.3,15.6,0002.8,0012.48,0017.31,0012.09
2021-08-20 20:29:00,,0825.3,5.00,0.00,29.5,28.5,00.0,38.5,31.4,15.6,0002.8,0012.46,0017.01,0012.07
2021-08-20 20:30:00,,0825.3,5.01,0.00,29.5,28.6,00.0,38.5,31.4,16.0,0002.8,0012.44,0016.66,0012.06
2021-08-20 20:31:00,,0825.3,5.00,0.00,29.6,28.7,00.0,38.5,31.5,16.1,0002.8,0012.45,0016.61,0012.07
2021-08-20 20:32:00,,0825.4,5.00,0.00,29.6,28.8,00.0,38.6,31.5,15.8,0002.9,0012.47,0016.53,0012.08
2021-08-20 20:33:00,,0825.3,5.01,0.00,29.7,28.9,00.0,38.6,31.6,15.8,0002.9,0012.47,0016.19,0012.09
2021-08-20 20:34:00,,0825.3,5.00,0.00,29.7,28.7,00.0,38.6,31.6,15.3,0003.0,0012.49,0016.18,0012.09
2021-08-20 20:35:00,,0825.4,5.01,0.00,29.6,27.0,00.0,38.6,31.1,15.8,0003.1,0012.43,0016.26,0012.05
2021-08-20 20:36:00,,0825.4,4.99,0.00,29.4,25.7,00.0,38.6,30.7,15.8,0003.0,0012.42,0016.59,0012.04
2021-08-20 20:37:00,,0825.3,5.00,0.00,29.3,25.9,00.0,38.5,30.7,16.1,0003.1,0012.44,0016.70,0012.04
2021-08-20 20:38:00,,0825.3,4.99,0.00,29.3,26.3,00.0,38.5,30.8,16.1,0003.0,0012.49,0016.79,0012.07
2021-08-20 20:39:00,,0825.3,5.01,0.00,29.2,26.7,00.0,38.5,30.9,16.4,0003.0,0012.51,0016.89,0012.08
2021-08-20 20:40:00,,0825.2,5.00,0.00,29.2,27.1,00.0,38.4,30.9,17.4,0003.1,0012.51,0016.85,0012.10
2021-08-20 20:41:00,,0825.1,4.99,0.00,29.3,27.5,00.0,38.4,31.0,16.9,0003.1,0012.50,0017.05,0012.09
2021-08-20 20:42:00,,0824.9,5.00,0.00,29.3,27.7,00.0,38.4,31.1,16.9,0002.9,0012.49,0017.21,0012.08
2021-08-20 20:43:00,,0825.0,5.01,0.00,29.3,28.0,00.0,38.4,31.1,17.0,0002.7,0012.46,0017.24,0012.05
2021-08-20 20:44:00,,0825.2,4.99,0.00,29.4,28.2,00.0,38.4,31.2,16.1,0002.5,0012.44,0017.27,0012.01
2021-08-20 20:45:00,,0825.3,4.99,0.00,29.4,28.3,00.0,38.4,31.3,15.8,0002.2,0012.38,0017.15,0011.98
2021-08-20 20:46:00,,0825.3,5.00,0.00,29.5,28.5,00.0,38.5,31.3,15.8,0002.2,0012.38,0017.12,0011.99
2021-08-20 20:47:00,,0825.3,4.99,0.00,29.5,28.6,00.0,38.5,31.4,16.1,0002.1,0012.39,0016.80,0012.00
2021-08-20 20:48:00,,0825.3,5.00,0.00,29.6,28.7,00.0,38.5,31.5,16.7,0001.9,0012.37,0016.68,0011.99
2021-08-20 20:49:00,,0825.3,5.01,0.00,29.6,28.8,00.0,38.5,31.5,16.7,0001.8,0012.34,0016.67,0011.97
2021-08-20 20:50:00,,0825.3,5.00,0.00,29.6,28.9,00.0,38.6,31.6,17.1,0001.7,0012.33,0016.63,0011.94
2021-08-20 20:51:00,,0825.2,5.00,0.00,29.7,28.1,00.0,38.6,31.3,16.3,0001.7,0012.34,0016.62,0011.94
2021-08-20 20:52:00,,0825.2,5.01,0.00,29.5,26.2,00.0,38.5,30.8,16.0,0001.8,0012.33,0016.42,0011.91
2021-08-20 20:53:00,,0825.2,5.00,0.00,29.3,25.8,00.0,38.5,30.6,16.3,0002.1,0012.29,0016.20,0011.90
2021-08-20 20:54:00,,0825.2,4.99,0.00,29.3,26.1,00.0,38.5,30.7,16.4,0002.3,0012.29,0016.56,0011.89
2021-08-20 20:55:00,,0825.3,5.00,0.00,29.2,26.6,00.0,38.4,30.8,16.2,0002.2,0012.32,0016.71,0011.90
2021-08-20 20:56:00,,0825.2,5.01,0.00,29.2,27.0,00.0,38.4,30.9,16.4,0002.2,0012.34,0016.82,0011.88
2021-08-20 20:57:00,,0825.3,4.99,0.00,29.3,27.3,00.0,38.4,31.0,16.6,0002.2,0012.34,0016.79,0011.86
2021-08-20 20:58:00,,0825.3,5.01,0.00,29.3,27.7,00.0,38.4,31.1,17.0,0002.3,0012.33,0017.02,0011.84
2021-08-20 20:59:00,,0825.3,5.00,0.00,29.3,27.9,00.0,38.4,31.2,16.6,0002.5,0012.31,0017.24,0011.84
